Regional Weather Roundup
Issued by NWS

Home | Current Version | Previous Version | Graphics & Text | Print | Product List | Glossary On
Versions: 1 2 3 4 5 6 7 8 9 10 11 12 13 14 15 16 17 18 19 20 21 22 23 24 25 26 27 28 29 30 31 32 33 34 35 36 37 38 39 40 41 42 43 44 45 46 47 48 49 50
000
ASUS45 KSLC 010610
RWRUT

UTAH REGIONAL WEATHER ROUNDUP
NATIONAL WEATHER SERVICE SALT LAKE CITY UT
1100 PM MST SAT FEB 28 2015

UTZ001>011-023>025-010700-

NORTHERN UTAH

CITY           SKY/WX    TMP DP  RH WIND       PRES   REMARKS
BRIGHAM CITY   MOCLDY    35  26  70 N5        29.93R WCI  31
HILL AFB       CLOUDY    34  26  73 E15       29.91R WCI  24
LOGAN          CLOUDY    36  23  59 CALM      29.92R
OGDEN          CLOUDY    36  26  67 CALM      29.91R
PROVO AIRPORT  MOCLDY    34  30  86 CALM      29.92R
SALT LAKE CITY MOCLDY    35  31  85 SW5       29.92R WCI  31
VERNAL         CLOUDY    33  28  81 CALM      29.90R
WENDOVER       PTCLDY    36  25  64 W6        29.93R WCI  31
HEBER CITY     LGT SNOW  27  27 100 CALM      29.91R
WEST JORDAN    CLOUDY    34  32  93 CALM      29.92R

$$

UTZ012>022-026-027-010700-

SOUTHERN/CENTRAL UTAH

CITY           SKY/WX    TMP DP  RH WIND       PRES   REMARKS
BLANDING       CLOUDY    32  32 100 NE3       30.02R VSB 1/2
BRYCE CANYON   FOG       12  10  92 W3        29.90R VSB 3/4
CEDAR CITY     MOCLDY    27  24  89 SE7       29.90R WCI  19
DELTA          CLOUDY    32  32 100 S5        29.91R WCI  27
HANKSVILLE     PTCLDY    32  32 100 CALM      29.93R
MILFORD        PTCLDY    33  29  85 S9        29.89R WCI  25
MOAB/CYNLANDS  PTCLDY    32  30  92 CALM      29.90R
PRICE          CLOUDY    32  29  88 E5        29.88R WCI  27
ST GEORGE      MOCLDY    45  36  70 S6        29.92R
KANAB          CLOUDY    32  32 100 SE7       29.99R WCI  26

$$

REGIONAL REPORTS     COLORADO/ARIZONA

CITY           SKY/WX    TMP DP  RH WIND       PRES   REMARKS
CRAIG, CO      LGT SNOW  27  24  89 N8        29.89R FOG     WCI  19
GRAND JUNCTION MOCLDY    32  29  88 E3        29.90R
RIFLE          MOCLDY    32  26  78 W5        29.88R WCI  27
MONTROSE       LGT SNOW  33  30  88 CALM      29.95S FOG
CORTEZ         CLOUDY    29  27  92 CALM      29.96R
PAGE, AZ       PTCLDY    40  34  79 NW5       29.94R
GRAND CANYON   CLOUDY    34  30  85 CALM      29.95R
KINGMAN        CLOUDY    47  32  56 S8        29.88R
FLAGSTAFF      CLOUDY    36  31  82 SW8       29.95R WCI  30

$$

REGIONAL REPORTS    NEVADA/IDAHO/WYOMING

CITY           SKY/WX    TMP DP  RH WIND       PRES   REMARKS
LAS VEGAS, NV  PTCLDY    54  27  35 S14       29.81R
ELY            CLOUDY    29  27  92 N9        29.87R WCI  20
ELKO           CLEAR     32  26  78 NE14      29.90R WCI  22
POCATELLO, ID  CLEAR     25  10  53 NE9       30.02R WCI  15
BURLEY         CLOUDY    30  12  47 E13       29.98R WCI  20
EVANSTON, WY   CLOUDY    23  19  85 E9        29.90R WCI  13
ROCK SPRINGS   CLOUDY    12   7  80 E13       29.96R WCI  -3

$$


USA.gov is the U.S. government's official web portal to all federal, state and local government web resources and services.